Location: Newark
(46.3500°N, 3.3050°E)
Time: 01:17:10
(UTC+00:00)

N. Korean satellite - Visible Passes

Search period start: 20 September 2019 00:00
Search period end: 30 September 2019 00:00
Orbit: 455 x 509 km, 97.2° (Epoch: 18 September)

Date Brightness Start Highest point End Pass type
(mag) Time Alt. Az. Time Alt. Az. Time Alt. Az.
20 Sep 9.6 05:00:23 10° NE 05:02:58 19° E 05:05:31 10° SE visible
24 Sep 9.8 04:53:08 10° NE 04:55:22 16° E 04:57:37 10° SE visible
28 Sep 10.0 04:45:57 10° ENE 04:47:46 14° E 04:49:34 10° ESE visible
29 Sep 10.5 18:06:32 10° WSW 18:07:43 11° W 18:08:55 10° WNW visible
